SCP
1 1 2 2 2 1 1 0 0 0 0 0 0 0 1 1 0 0 0 0 0 0 1 1 2 2 1 1 1 1 1 1 1 1 1 1 1 1 1 1 1 1 2 2 2 2 2 2 1
1 1 2 2 2 1 0 0 0 0 0 0 0 1 1 1 0 0 0 0 0 0 1 1 2 2 2 1 1 1 1 1 1 1 1 1 1 1 1 1 1 1 1 2 2 2 2 2 1
2 2 2 2 2 1 0 0 0 0 0 0 1 1 1 1 0 0 0 0 0 0 1 1 2 2 2 1 1 1 1 1 1 1 1 1 1 1 1 1 1 1 1 2 2 2 2 2 1
3 3 3 2 1 1 0 0 0 0 0 1 1 1 1 1 0 0 0 0 0 1 1 1 2 3 3 2 1 1 1 1 1 1 1 1 1 1 1 1 1 2 2 2 2 2 2 2 2
4 4 3 2 1 1 0 0 0 0 1 1 1 1 1 1 1 0 0 0 1 1 1 1 2 3 3 2 2 1 1 1 1 1 1 1 1 1 1 1 2 2 3 2 2 2 2 2 2
6 5 3 1 1 0 0 0 0 0 1 1 1 1 1 1 1 1 1 1 1 1 1 1 2 3 3 3 2 2 2 2 2 1 1 1 1 1 1 1 2 2 2 2 2 2 2 2 2
5 4 2 1 1 0 0 0 0 0 1 1 1 1 1 1 1 1 1 1 1 1 1 1 2 3 3 3 3 2 2 2 2 2 2 1 1 1 1 1 1 2 2 2 2 2 2 2 2
3 3 2 1 0 0 0 0 0 0 1 1 1 1 2 1 1 1 1 1 1 1 1 1 1 2 2 2 2 2 2 2 2 2 2 2 2 2 1 1 1 2 2 2 2 2 2 1 1
3 3 2 1 0 0 0 0 0 0 1 1 1 2 2 1 1 1 1 1 1 1 1 1 1 1 1 1 2 2 2 2 2 2 2 2 2 2 1 1 1 1 2 2 2 2 2 1 1
2 3 2 1 0 0 0 0 0 0 1 1 1 1 1 1 1 1 1 1 1 1 1 1 1 1 1 1 1 1 1 1 1 1 2 2 1 1 1 1 1 1 2 2 2 2 1 1 1
1 1 1 0 0 0 0 0 0 1 1 1 1 1 1 1 1 1 1 1 1 1 1 1 1 1 1 1 1 1 1 1 1 1 1 1 1 1 2 2 2 1 1 2 1 1 1 1 1
1 1 0 0 0 0 0 0 1 1 1 1 1 1 1 1 1 1 1 1 1 1 1 1 2 2 2 2 1 2 2 1 1 1 1 1 1 1 1 2 2 1 1 1 1 1 1 1 1
0 0 0 0 0 0 0 0 1 1 1 1 1 1 1 1 1 1 1 2 2 1 1 1 2 2 3 2 2 2 2 2 2 1 1 1 1 1 1 1 2 1 1 1 1 1 1 1 1
0 0 0 0 0 0 0 0 0 1 1 1 1 1 1 1 1 1 2 2 2 1 1 1 2 3 4 3 3 2 2 2 2 2 1 1 1 1 1 1 1 1 1 1 1 1 1 1 1
0 0 0 0 0 0 0 0 0 1 1 1 1 1 1 1 1 1 2 3 2 2 1 1 2 4 5 5 3 2 2 3 3 2 2 1 1 1 1 1 1 1 1 2 1 1 1 1 1
0 0 0 0 0 0 0 0 0 1 1 2 2 2 1 1 1 2 2 2 3 2 1 1 2 3 6 6 5 3 3 4 3 3 2 2 1 1 1 1 2 1 1 1 1 1 1 1 1
0 0 0 0 0 0 0 0 1 1 2 3 3 2 1 1 1 1 2 2 2 2 2 2 3 4 6 7 6 4 5 5 4 3 3 2 2 1 1 1 2 1 1 1 1 1 1 1 1
0 0 0 0 0 0 1 1 1 2 3 3 3 2 2 1 1 1 2 2 2 2 3 4 6 7 8 9 8 6 6 6 5 4 4 3 2 1 1 2 2 1 1 1 1 1 1 1 1
0 0 0 0 0 1 1 1 1 2 2 2 2 2 2 1 1 1 1 2 2 2 3 5 7 9 10 10 10 8 7 6 5 4 4 3 2 2 2 2 2 2 1 1 1 1 1 1 1
0 0 0 0 0 1 1 1 2 2 2 2 2 2 2 1 1 1 1 2 2 2 3 5 8 10 11 11 10 9 8 7 5 4 4 4 3 3 3 3 2 2 2 2 2 2 1 1 1
0 0 0 0 0 1 1 2 2 2 1 1 2 2 2 2 2 2 2 2 2 2 3 4 7 9 11 11 10 9 9 8 7 5 4 4 4 4 4 3 3 3 2 2 2 2 2 1 1
1 0 0 0 0 1 1 2 2 2 1 1 2 2 2 3 3 3 3 3 2 2 3 4 6 8 9 9 9 8 9 9 8 6 4 4 4 5 5 5 5 4 3 3 3 3 3 2 2
1 1 0 0 0 0 1 1 2 2 2 2 2 2 3 4 4 5 5 5 5 4 5 6 7 8 8 8 8 8 8 8 7 6 5 5 5 6 6 7 6 6 5 4 4 4 4 3 2
1 1 1 0 0 0 1 1 1 2 2 2 2 3 4 5 5 5 5 6 6 7 7 8 9 8 7 7 7 7 6 6 6 6 5 5 6 6 7 8 9 8 7 6 6 6 6 4 3
0 0 0 0 0 0 1 1 2 2 2 2 3 4 5 5 5 4 4 5 6 6 7 8 9 9 7 6 6 6 5 5 5 5 5 5 5 6 6 8 10 11 10 9 9 8 7 5 5
0 0 0 0 0 1 1 2 2 2 2 2 2 3 3 3 3 4 5 6 7 7 7 8 9 8 7 5 5 5 5 4 4 4 4 4 5 5 5 7 10 12 12 12 11 10 8 6 6
0 0 0 0 0 1 1 2 2 2 2 2 2 2 2 2 2 3 6 9 9 9 9 9 9 8 7 5 5 5 4 4 3 3 3 4 4 5 6 7 9 11 12 12 11 10 8 7 6
0 0 0 0 0 1 1 1 2 2 2 2 2 2 2 2 2 4 6 8 9 8 8 9 9 8 8 7 6 5 5 4 4 3 3 3 4 5 5 7 9 10 10 10 9 9 8 7 7
0 0 0 0 0 0 1 1 2 2 3 4 3 3 2 2 3 4 5 6 6 6 7 8 8 8 8 8 7 6 5 5 5 4 4 4 4 4 4 5 6 7 8 8 8 8 8 8 8
0 0 0 0 0 0 1 1 2 2 4 5 4 3 2 2 3 3 4 4 4 5 6 8 8 8 8 9 8 7 6 6 5 5 4 4 4 3 4 4 5 5 6 8 8 8 7 8 8
Wind_Speed
11 11 9 6 5 3 7 10 11 12 11 11 11 12 15 15 10 9 6 9 11 11 10 11 12 11 10 10 9 9 9 9 9 10 10 10 9 9 9 10 9 9 10 12 12 12 12 11 10
10 11 7 5 4 2 9 10 11 12 10 10 12 14 15 14 12 10 7 8 10 11 10 10 11 10 10 10 9 9 9 9 10 10 10 10 10 10 10 10 9 10 12 13 13 13 12 11 10
11 12 6 5 1 7 10 10 9 10 10 10 12 14 13 10 11 8 8 8 11 12 11 11 11 11 10 10 10 10 10 9 10 10 10 10 10 10 10 10 9 10 12 13 13 12 12 11 10
7 7 6 2 7 10 10 9 8 10 10 11 11 11 13 11 10 10 9 9 12 12 12 11 11 11 10 10 10 10 10 10 10 10 10 10 10 11 11 11 10 12 13 13 13 12 12 11 10
8 5 4 3 8 10 9 9 10 10 10 13 14 14 13 11 11 10 9 10 11 12 11 11 11 11 10 10 10 9 9 10 9 9 9 10 11 11 11 11 12 14 14 13 12 12 11 10 9
5 4 1 5 9 10 9 9 10 10 10 12 13 13 11 10 9 9 9 9 11 12 12 10 11 11 10 9 9 9 9 9 9 9 10 10 11 11 10 11 12 13 13 13 12 12 10 9 8
6 3 1 5 10 10 9 9 10 9 10 10 11 12 10 9 8 9 8 9 10 11 11 10 10 9 9 9 9 9 8 8 8 9 10 10 10 11 11 12 13 13 13 12 12 11 10 8 6
3 2 3 6 11 10 10 10 9 10 10 9 10 10 10 9 9 9 8 8 8 8 9 9 9 9 8 7 9 8 8 8 8 8 9 10 10 11 11 12 13 13 12 12 11 10 9 8 6
1 1 5 7 9 9 9 10 10 11 11 12 13 14 13 11 10 9 9 8 7 7 6 7 8 8 7 7 8 7 7 7 7 6 8 6 5 7 8 12 12 12 11 11 10 9 8 7 6
2 3 6 6 9 8 8 9 10 10 11 13 14 14 12 11 9 9 9 9 7 6 6 6 7 6 5 6 5 4 5 5 4 4 5 3 4 5 7 11 12 11 10 10 9 8 7 6 4
3 4 4 7 8 7 8 9 10 10 10 12 13 13 11 11 9 8 9 9 8 6 6 7 7 5 5 5 3 3 3 4 4 5 5 4 4 4 4 4 6 6 7 5 6 6 4 3 3
3 3 5 7 6 7 8 9 12 12 12 13 13 12 10 10 9 9 9 9 8 6 6 6 7 6 5 4 3 3 3 3 3 4 4 3 2 3 3 2 3 3 2 3 3 2 2 2 3
2 3 5 5 5 7 9 10 12 13 13 13 13 12 10 9 9 9 9 9 9 7 6 7 7 6 4 3 2 3 4 4 5 3 3 3 3 3 3 2 2 2 2 2 2 2 1 1 1
1 2 4 3 4 6 9 8 9 11 12 13 12 10 10 9 9 9 9 8 8 7 6 6 7 6 4 3 2 2 3 3 4 4 4 3 3 3 2 2 2 2 2 2 2 2 1 1 1
2 1 1 2 3 5 8 6 7 9 10 12 12 10 10 10 9 9 9 8 8 7 6 5 6 5 4 4 2 2 2 4 4 4 4 4 4 3 2 2 2 2 2 2 2 1 1 2 2
4 3 3 4 4 5 5 5 6 7 8 10 11 11 10 9 9 9 9 8 8 7 5 4 5 6 4 3 2 2 3 4 3 3 4 3 3 2 1 1 2 1 1 1 1 1 1 1 1
5 5 5 4 4 5 5 7 7 8 8 9 10 10 11 10 9 9 9 9 8 7 5 5 5 5 4 3 2 2 3 3 2 3 3 3 2 2 1 2 1 0 1 1 1 2 1 0 0
6 6 4 3 3 3 4 6 7 7 9 9 9 10 10 11 10 10 10 10 9 8 6 5 5 4 4 2 2 1 2 2 2 2 3 2 2 2 1 1 1 1 1 1 2 1 0 0 1
10 6 4 3 2 2 3 5 7 7 7 8 8 10 10 11 11 10 10 10 10 9 7 6 5 4 3 2 2 1 1 2 1 2 3 3 2 2 2 2 1 1 1 1 0 0 1 0 0
9 7 5 3 4 3 3 4 6 6 7 7 9 10 11 12 11 10 10 10 10 9 7 6 5 4 3 2 1 1 1 1 1 2 2 2 1 1 1 1 1 1 1 0 0 1 1 1 1
8 7 5 5 4 3 4 5 5 5 5 6 8 9 10 12 13 11 10 10 10 9 8 7 6 5 4 3 2 1 1 1 1 2 2 1 1 1 1 1 1 1 0 0 0 0 1 1 0
8 6 6 6 7 5 5 3 2 5 5 6 7 9 9 10 11 11 10 10 10 9 8 7 6 5 4 3 2 2 1 1 1 1 2 2 1 1 1 1 1 1 1 1 1 1 1 0 1
7 6 7 7 8 8 5 4 3 6 4 5 6 7 8 9 10 10 10 9 9 9 8 8 7 5 4 3 2 2 1 1 1 2 2 1 1 1 1 1 1 1 1 1 1 1 1 1 1
7 8 9 8 8 8 5 4 3 6 6 6 8 7 6 7 9 9 9 8 8 8 8 8 7 5 4 3 2 2 1 1 1 1 1 1 1 1 1 1 1 1 1 0 0 1 1 1 2
9 8 6 6 6 5 4 3 3 6 7 6 7 7 8 8 8 7 8 8 7 7 7 7 7 5 5 4 3 2 1 1 1 1 1 1 1 1 1 1 1 0 0 0 1 1 1 1 1
8 8 7 6 6 3 2 0 5 7 8 8 7 7 9 8 8 6 6 7 6 7 6 7 7 5 5 4 3 2 2 1 1 1 1 0 0 1 1 1 1 1 1 0 0 0 1 0 1
9 8 8 8 7 6 1 3 6 8 9 9 8 8 9 9 9 8 6 6 6 6 6 6 7 5 5 4 3 2 2 1 0 0 0 1 1 0 1 1 1 1 0 0 0 0 0 0 1
11 8 6 6 4 6 4 3 3 7 7 8 7 8 9 9 9 9 7 4 5 6 6 6 7 6 5 5 4 3 2 2 1 1 1 0 1 1 1 1 1 0 0 0 0 0 0 0 0
9 9 7 6 6 6 4 1 5 6 7 7 7 6 8 8 7 8 7 6 5 5 5 4 5 5 5 4 3 3 3 2 2 1 1 1 1 1 1 0 0 0 0 1 1 1 0 1 1
10 9 9 7 6 6 5 0 4 5 7 7 6 7 6 7 8 7 7 6 5 5 5 4 4 4 4 4 3 3 2 2 2 1 1 1 1 1 1 1 1 1 1 1 1 2 1 1 1
Wind_Direction
184 198 209 231 246 241 68 63 61 59 57 54 53 58 57 53 57 79 77 76 87 88 87 81 71 63 60 59 62 63 64 64 67 74 81 86 89 93 105 105 105 112 127 129 125 124 122 127 130
206 209 220 243 254 73 73 68 64 65 65 67 65 64 66 62 72 90 85 80 90 92 87 80 77 65 63 63 63 65 69 67 70 76 81 85 90 92 99 108 108 112 123 127 122 122 121 123 129
240 242 254 241 32 65 73 75 76 77 70 71 70 61 60 70 76 90 103 101 93 90 90 87 82 73 70 69 67 68 71 70 74 79 82 86 88 93 102 106 110 117 124 125 124 126 125 126 129
238 233 242 263 63 64 72 79 82 80 76 76 76 72 65 66 84 100 108 100 97 97 96 95 90 83 77 73 71 70 70 73 78 84 85 87 88 92 99 102 102 112 119 120 120 121 126 125 128
236 255 251 78 76 72 68 76 77 75 75 78 83 87 81 81 97 106 107 101 98 96 100 104 98 90 86 81 77 74 75 76 80 85 87 91 92 95 98 99 100 108 114 114 114 117 116 117 119
257 252 251 84 82 78 73 73 79 81 82 91 94 94 93 104 106 106 102 103 103 107 109 111 106 97 93 89 84 81 80 80 83 89 90 90 92 94 101 104 106 113 113 116 114 112 111 112 119
255 279 86 86 84 80 77 70 75 80 77 82 97 99 104 108 109 110 104 102 104 108 113 121 122 113 105 98 94 94 90 87 92 99 98 97 94 95 102 107 107 111 113 113 114 117 119 120 121
249 305 61 80 83 77 80 80 81 83 76 80 90 100 112 124 126 117 111 102 100 106 112 120 123 124 124 116 106 105 103 100 101 105 108 108 107 105 111 114 111 114 116 119 122 127 133 138 142
297 340 56 65 81 88 94 94 86 82 85 79 79 96 115 129 129 124 117 105 96 92 101 104 111 118 122 120 119 122 117 112 111 112 117 114 101 100 111 114 119 124 126 127 131 139 146 153 163
70 57 67 69 81 91 89 95 101 99 92 91 93 103 118 127 128 127 120 113 102 94 97 99 94 101 106 104 117 128 121 117 115 99 103 103 92 96 107 116 126 133 135 138 149 158 166 176 177
93 97 81 82 80 89 91 94 97 96 100 108 113 118 123 124 124 121 117 112 109 106 97 96 93 84 84 88 102 94 93 106 109 106 107 105 102 109 111 122 131 139 148 152 155 171 185 173 170
93 89 78 75 82 82 85 85 85 85 92 108 116 121 126 125 123 121 114 110 107 95 89 86 85 77 62 64 70 93 91 94 91 86 80 89 93 96 101 108 124 140 143 147 157 160 165 157 165
91 91 89 83 80 86 84 85 92 97 103 111 119 124 127 125 120 111 106 106 103 97 88 81 77 76 71 58 39 76 84 82 88 85 75 80 86 85 89 91 104 113 117 121 110 115 115 114 139
141 82 83 94 95 96 90 91 103 108 117 120 124 127 130 125 118 114 112 113 113 107 93 90 92 92 91 82 57 67 85 93 89 88 80 82 93 88 91 98 87 97 97 94 102 109 111 96 77
254 106 127 137 143 129 110 98 101 120 125 130 132 133 131 124 120 119 118 119 117 112 103 96 103 100 97 98 86 90 95 96 90 92 87 77 84 82 89 99 99 100 115 116 117 134 143 142 139
247 223 208 199 192 165 132 121 128 141 137 134 137 138 134 128 129 125 125 124 118 115 111 114 107 102 99 94 82 63 73 86 91 101 96 83 82 84 80 87 89 97 116 127 122 86 72 87 109
247 240 221 198 210 164 143 141 149 159 148 142 144 144 143 140 137 132 133 129 121 116 114 106 97 108 116 117 108 83 78 75 80 92 94 89 88 77 71 87 72 87 78 62 83 85 57 60 111
266 251 225 209 188 171 145 138 151 165 152 148 150 147 149 147 144 141 139 132 126 121 121 117 112 110 115 118 112 78 77 83 78 80 88 87 71 74 27 95 57 50 59 41 55 74 156 231 247
260 264 248 222 174 190 160 152 158 165 158 152 153 150 157 153 147 145 144 136 132 128 129 130 125 120 126 120 125 124 122 125 120 110 94 90 59 47 40 46 57 61 79 65 49 292 236 205 100
259 266 276 225 175 207 202 190 176 170 167 157 154 153 159 151 146 148 149 142 139 138 139 134 132 133 140 118 113 123 120 117 108 90 99 100 83 42 95 55 40 49 87 38 276 239 265 219 147
256 249 254 266 231 211 235 222 169 158 149 143 147 150 161 154 151 155 154 147 145 144 146 149 147 147 157 149 145 119 113 88 93 117 118 107 103 78 39 57 49 334 64 301 240 298 225 266 210
260 270 275 273 276 251 252 248 169 156 155 166 168 156 154 145 145 157 159 156 152 149 150 144 142 150 153 158 163 161 152 140 138 125 118 116 121 115 103 84 78 24 41 346 303 19 300 265 265
266 283 281 277 279 276 259 244 188 153 167 171 153 142 146 140 139 147 152 154 153 151 151 146 143 145 147 167 168 168 146 123 130 121 112 127 148 161 113 86 66 70 75 29 351 17 352 1 337
255 257 258 260 264 262 261 261 194 160 169 167 139 132 129 131 134 139 139 137 141 144 145 144 141 143 149 162 151 148 144 141 119 108 133 188 154 156 138 136 99 73 101 111 18 360 34 23 357
246 253 260 259 251 255 239 229 147 135 138 141 136 137 131 120 114 123 133 140 138 136 140 136 138 147 150 154 151 157 164 168 149 196 200 233 182 148 117 121 120 113 172 177 68 63 41 20 349
250 257 263 277 281 281 290 175 122 121 130 128 127 136 129 126 124 117 127 138 141 140 135 137 139 150 160 163 165 169 173 194 190 234 286 275 14 69 106 111 142 172 219 108 102 180 177 95 308
251 256 267 274 281 282 231 139 135 116 115 121 131 136 133 133 129 123 119 132 135 140 134 138 143 153 161 157 157 161 172 217 243 190 324 340 347 35 83 103 116 99 67 29 33 300 339 5 303
250 266 282 282 279 275 259 223 142 130 131 130 128 135 127 129 134 131 126 116 134 134 129 136 147 155 158 160 174 169 169 186 201 251 134 91 4 17 41 34 49 34 5 353 249 265 309 154 222
229 246 258 273 280 284 278 192 134 142 128 129 132 123 126 125 119 116 122 127 116 117 121 121 144 155 158 165 174 163 163 182 199 210 193 152 193 229 207 219 296 295 325 318 306 271 268 276 271
246 249 252 250 253 263 275 271 117 130 127 119 122 123 121 124 119 118 115 108 101 97 101 109 131 146 157 158 158 160 159 175 193 186 163 200 199 225 235 229 254 257 278 303 299 293 272 277 294